Track METEOR 3-5 now! 10-day predictions METEOR 3-5 is classified as:
1 21655U 91056A 21017.48211520 -.00000066 00000-0 -20300-3 0 9996 2 21655 82.5559 96.1842 0014247 45.2472 314.9808 13.17094793414744